Content
SEND FEEDBACK

Daily
Averages
Monthly
Summary
United States of America

RAVENNA, OHIO


Home > North America > United States > Ohio
Elevation: 1100 feet     Latitude: 41 08N     Longitude: 081 14W

WEATHER
 
SELECT A DAY
Number of Records: 82,225;   Date Range: 3/31/11 - 9/17/14
 
SHARE

PRINT THIS DATA

[ ← Previous Day ]
WEATHER ALMANAC - FEBRUARY 13, 2013
[ Next Day → ]
[ °C ]   °F
Weather ElementAverageHighLow
Temperature27.7 °F33.1 °F (12:35 pm) (1:15 am)
Dewpoint23.7 °F26.2 °F (7:36 am) (7:00 pm)
Humidity85.4 %100 % (12:35 am)67 % (4:16 pm)
Barometer29.79 in29.90 in (12:35 am)29.71 in (1:56 pm)
Wind Speed2.6 mph8.1 mph (4:56 pm)
Weather ElementAverage
Visibility8.8 mi
Wind DirectionSSE (143.9 °)

Weather ElementTotal
Precipitation---
Heating Degree Days48.5 (Base 65)
Averaged from 71 records on February 13, 2013
WEATHER CONDITIONS BREAKOUT
WIND DIRECTION BREAKOUT
WEATHER BY HOUR - FEBRUARY 13, 2013
[ °C ]   °F
Local TimeTemperatureDewpointHumidityBarometerVisibilityWind DirectionWind SpeedGust SpeedPrecipitationEventsConditions
12:35 AM23.4 °F23.5 °F100 %29.90 in7.0 miCalmClear
12:55 AM24.1 °F24.3 °F100 %29.90 in7.0 miENE (60°)3.5 mphClear
1:15 AM0.0 °F0.0 °F29.89 in5.0 miCalmClear
1:35 AM23.9 °F23.9 °F100 %29.89 in7.0 miEast (80°)3.5 mphMostly Cloudy
1:55 AM25.7 °F25.9 °F100 %29.87 in10.0 miEast (90°)4.6 mphOvercast
2:16 AM26.6 °F25.3 °F95 %29.87 in10.0 miCalmOvercast
2:35 AM26.8 °F25.5 °F95 %29.87 in10.0 miCalmOvercast
2:56 AM27.3 °F25.7 °F94 %29.86 in10.0 miCalmOvercast
3:15 AM27.1 °F24.4 °F90 %29.85 in10.0 miESE (110°)3.5 mphOvercast
3:35 AM25.9 °F23.4 °F90 %29.85 in10.0 miCalmMostly Cloudy
3:56 AM25.3 °F22.6 °F89 %29.84 in10.0 miCalmMostly Cloudy
4:15 AM25.2 °F24.8 °F99 %29.84 in7.0 miCalmOvercast
4:36 AM25.2 °F24.1 °F96 %29.84 in7.0 miCalmOvercast
4:55 AM25.9 °F24.4 °F94 %29.84 in7.0 miCalmOvercast
5:16 AM26.2 °F24.3 °F92 %29.84 in10.0 miCalmOvercast
5:35 AM26.6 °F24.8 °F93 %29.83 in7.0 miCalmOvercast
5:56 AM26.6 °F25.2 °F94 %29.83 in7.0 miWNW (300°)3.5 mphOvercast
6:16 AM26.6 °F24.8 °F93 %29.82 in7.0 miCalmOvercast
6:35 AM26.6 °F25.2 °F94 %29.81 in7.0 miCalmOvercast
6:56 AM27.0 °F25.5 °F94 %29.81 in7.0 miCalmOvercast
7:15 AM27.3 °F25.3 °F92 %29.81 in7.0 miCalmOvercast
7:36 AM27.5 °F26.2 °F95 %29.80 in7.0 miNNW (340°)3.5 mphOvercast
7:55 AM27.9 °F25.7 °F92 %29.80 in7.0 miNW (320°)3.5 mphOvercast
8:15 AM28.2 °F26.1 °F92 %29.80 in5.0 miNNW (340°)4.6 mphOvercast
8:35 AM28.9 °F26.2 °F90 %29.79 in7.0 miNorth (350°)5.8 mphOvercast
8:56 AM29.3 °F25.9 °F87 %29.79 in7.0 miNNW (340°)4.6 mphOvercast
9:15 AM29.3 °F24.6 °F83 %29.78 in10.0 miNNW (340°)4.6 mphOvercast
9:35 AM29.3 °F24.6 °F83 %29.77 in10.0 miNNE (20°)4.6 mphOvercast
9:55 AM29.3 °F24.3 °F81 %29.78 in10.0 miNE (50°)3.5 mphOvercast
10:15 AM29.3 °F24.6 °F83 %29.79 in10.0 miNE (50°)3.5 mphOvercast
10:35 AM29.3 °F23.7 °F80 %29.79 in10.0 miNorth (350°)4.6 mphOvercast
10:56 AM29.3 °F23.5 °F79 %29.79 in10.0 miCalmOvercast
11:16 AM30.2 °F24.3 °F79 %29.78 in10.0 miNE (50°)3.5 mphOvercast
11:35 AM30.6 °F23.7 °F76 %29.77 in10.0 miCalmOvercast
11:56 AM31.1 °F23.0 °F72 %29.77 in10.0 miCalmMostly Cloudy
12:15 PM31.5 °F23.4 °F72 %29.77 in10.0 miCalmOvercast
12:35 PM33.1 °F25.2 °F73 %29.75 in10.0 miESE (110°)4.6 mphOvercast
12:56 PM32.2 °F24.3 °F73 %29.74 in10.0 miEast (80°)3.5 mphScattered Clouds
1:15 PM32.9 °F24.8 °F72 %29.72 in10.0 miCalmClear
1:35 PM32.4 °F24.1 °F72 %29.72 in10.0 miCalmClear
1:56 PM32.7 °F24.3 °F71 %29.71 in10.0 miCalmClear
2:15 PM32.5 °F24.1 °F71 %29.71 in10.0 miNW (320°)3.5 mphClear
2:35 PM33.1 °F24.6 °F71 %29.71 in10.0 miNW (310°)4.6 mphClear
2:56 PM33.1 °F24.4 °F71 %29.71 in10.0 miNW (310°)4.6 mphClear
3:15 PM32.9 °F23.9 °F69 %29.71 in10.0 miWNW (290°)5.8 mphMostly Cloudy
3:35 PM32.9 °F23.7 °F69 %29.72 in10.0 miNNW (340°)5.8 mphOvercast
3:55 PM33.1 °F23.5 °F68 %29.72 in10.0 miWNW (290°)5.8 mphOvercast
4:16 PM32.9 °F23.2 °F67 %29.72 in10.0 miNW (310°)4.6 mphOvercast
4:35 PM32.0 °F23.9 °F72 %29.72 in10.0 miNW (320°)6.9 mphMostly Cloudy
4:56 PM31.5 °F23.7 °F73 %29.72 in10.0 miNW (310°)8.1 mphScattered Clouds
5:15 PM30.7 °F23.9 °F76 %29.72 in10.0 miNW (310°)6.9 mphClear
5:35 PM30.2 °F23.5 °F76 %29.72 in10.0 miNW (310°)3.5 mphClear
5:56 PM29.8 °F23.2 °F76 %29.72 in10.0 miNW (320°)4.6 mphClear
6:16 PM29.3 °F23.0 °F77 %29.74 in10.0 miWNW (290°)4.6 mphClear
6:35 PM28.6 °F23.0 °F80 %29.74 in10.0 miWNW (300°)3.5 mphClear
6:56 PM28.0 °F22.8 °F81 %29.75 in10.0 miWNW (290°)3.5 mphClear
7:16 PM27.5 °F22.6 °F82 %29.75 in10.0 miWNW (290°)4.6 mphClear
7:35 PM27.1 °F22.5 °F83 %29.77 in10.0 miWNW (290°)4.6 mphClear
7:56 PM26.6 °F22.1 °F83 %29.78 in10.0 miWNW (290°)4.6 mphClear
8:15 PM25.7 °F21.9 °F86 %29.78 in10.0 miWNW (290°)3.5 mphClear
8:36 PM25.3 °F21.9 °F87 %29.79 in10.0 miWNW (290°)3.5 mphClear
8:55 PM24.8 °F21.9 °F89 %29.79 in10.0 miCalmClear
9:16 PM24.4 °F22.8 °F94 %29.80 in7.0 miCalmClear
9:35 PM24.4 °F23.0 °F94 %29.80 in7.0 miWest (260°)3.5 mphClear
9:56 PM24.4 °F22.6 °F93 %29.81 in7.0 miWest (260°)4.6 mphClear
10:15 PM24.4 °F22.6 °F93 %29.81 in7.0 miWSW (250°)3.5 mphClear
10:36 PM23.9 °F23.0 °F96 %29.81 in7.0 miCalmClear
10:56 PM23.4 °F23.5 °F100 %29.82 in7.0 miCalmClear
11:16 PM23.4 °F23.4 °F100 %29.81 in7.0 miCalmClear
11:35 PM23.0 °F23.0 °F100 %29.82 in5.0 miCalmClear
11:56 PM23.4 °F23.4 °F100 %29.83 in7.0 miCalmClear
Hourly data recorded from KPOV, located miles away from Ravenna, Ohio







STORIES FROM OUR PARTNERS